QPF
0.00 0.00 0.00 0.00 0.00 0.00 0.00 0.00 0.00 0.00 0.00 0.01 0.01 0.01 0.02 0.02 0.03 0.03 0.03 0.03 0.04 0.06 0.08 0.06 0.05 0.03 0.05 0.07 0.07 0.06 0.04 0.04 0.04 0.03 0.02 0.03 0.04 0.05 0.04 0.04 0.02 0.02 0.02 0.02
0.00 0.00 0.00 0.00 0.00 0.00 0.00 0.00 0.00 0.00 0.01 0.01 0.01 0.01 0.01 0.02 0.03 0.03 0.03 0.04 0.05 0.08 0.15 0.12 0.07 0.04 0.05 0.05 0.06 0.06 0.05 0.04 0.05 0.05 0.04 0.03 0.03 0.03 0.04 0.04 0.04 0.02 0.02 0.02
0.00 0.00 0.00 0.00 0.00 0.00 0.00 0.00 0.00 0.00 0.01 0.01 0.02 0.02 0.01 0.01 0.02 0.02 0.02 0.02 0.04 0.05 0.08 0.09 0.05 0.04 0.05 0.05 0.05 0.06 0.09 0.11 0.11 0.09 0.09 0.08 0.06 0.06 0.05 0.04 0.05 0.05 0.03 0.03
0.00 0.00 0.00 0.00 0.00 0.00 0.00 0.00 0.00 0.00 0.01 0.01 0.01 0.01 0.01 0.01 0.02 0.02 0.02 0.02 0.02 0.04 0.05 0.05 0.04 0.03 0.03 0.03 0.05 0.06 0.07 0.09 0.12 0.15 0.15 0.14 0.13 0.11 0.11 0.11 0.11 0.12 0.11 0.08
0.00 0.00 0.00 0.00 0.00 0.00 0.00 0.00 0.00 0.01 0.01 0.01 0.01 0.03 0.04 0.02 0.01 0.02 0.02 0.02 0.02 0.03 0.04 0.06 0.05 0.03 0.02 0.02 0.03 0.04 0.05 0.05 0.07 0.09 0.13 0.16 0.16 0.16 0.16 0.16 0.17 0.19 0.19 0.18
0.00 0.00 0.00 0.00 0.00 0.00 0.00 0.01 0.01 0.01 0.02 0.04 0.03 0.06 0.08 0.04 0.02 0.03 0.03 0.03 0.03 0.03 0.04 0.04 0.05 0.05 0.04 0.04 0.06 0.07 0.06 0.05 0.06 0.07 0.07 0.09 0.11 0.14 0.18 0.21 0.23 0.25 0.28 0.32
0.00 0.01 0.00 0.00 0.00 0.00 0.01 0.01 0.01 0.01 0.03 0.03 0.05 0.07 0.08 0.07 0.04 0.03 0.05 0.04 0.04 0.03 0.03 0.04 0.04 0.05 0.06 0.08 0.10 0.09 0.07 0.06 0.06 0.07 0.07 0.08 0.10 0.12 0.14 0.17 0.18 0.19 0.21 0.21
0.01 0.01 0.01 0.00 0.00 0.01 0.01 0.01 0.01 0.01 0.02 0.02 0.03 0.05 0.08 0.08 0.05 0.04 0.04 0.04 0.05 0.05 0.05 0.05 0.05 0.05 0.05 0.07 0.10 0.09 0.07 0.09 0.10 0.11 0.12 0.12 0.12 0.12 0.12 0.13 0.14 0.16 0.18 0.18
0.01 0.01 0.01 0.01 0.01 0.01 0.01 0.01 0.02 0.03 0.03 0.03 0.03 0.03 0.05 0.05 0.05 0.06 0.09 0.11 0.12 0.11 0.09 0.07 0.06 0.05 0.05 0.05 0.06 0.11 0.12 0.10 0.13 0.18 0.21 0.19 0.17 0.17 0.17 0.15 0.15 0.18 0.21 0.20
0.03 0.02 0.03 0.04 0.03 0.01 0.01 0.02 0.03 0.06 0.05 0.03 0.03 0.04 0.04 0.04 0.06 0.08 0.11 0.15 0.12 0.09 0.07 0.07 0.09 0.06 0.06 0.05 0.05 0.06 0.09 0.09 0.09 0.14 0.18 0.18 0.16 0.15 0.13 0.12 0.13 0.14 0.15 0.14
0.04 0.06 0.07 0.05 0.03 0.03 0.02 0.03 0.03 0.03 0.04 0.04 0.04 0.05 0.06 0.07 0.08 0.07 0.06 0.05 0.05 0.05 0.04 0.04 0.06 0.06 0.06 0.06 0.06 0.05 0.06 0.06 0.06 0.08 0.09 0.10 0.12 0.11 0.11 0.11 0.09 0.09 0.11 0.12
0.06 0.07 0.06 0.04 0.03 0.03 0.03 0.03 0.03 0.03 0.06 0.08 0.06 0.05 0.06 0.06 0.06 0.06 0.04 0.04 0.03 0.03 0.05 0.06 0.07 0.06 0.05 0.04 0.05 0.05 0.05 0.07 0.07 0.07 0.06 0.06 0.05 0.05 0.06 0.07 0.06 0.05 0.06 0.07
0.06 0.08 0.04 0.02 0.02 0.03 0.04 0.04 0.04 0.05 0.06 0.06 0.05 0.05 0.06 0.06 0.05 0.04 0.04 0.03 0.03 0.02 0.04 0.04 0.05 0.05 0.05 0.05 0.05 0.04 0.04 0.04 0.06 0.06 0.06 0.05 0.04 0.03 0.03 0.03 0.03 0.03 0.03 0.03
0.04 0.03 0.02 0.01 0.01 0.04 0.06 0.04 0.04 0.06 0.05 0.04 0.04 0.05 0.06 0.06 0.04 0.04 0.04 0.04 0.03 0.03 0.03 0.02 0.02 0.03 0.03 0.03 0.03 0.03 0.02 0.03 0.03 0.04 0.05 0.05 0.05 0.04 0.04 0.03 0.03 0.02 0.02 0.02
0.02 0.01 0.02 0.03 0.03 0.04 0.05 0.05 0.06 0.06 0.06 0.06 0.05 0.05 0.06 0.07 0.06 0.04 0.03 0.03 0.03 0.03 0.03 0.03 0.02 0.03 0.03 0.04 0.04 0.03 0.03 0.04 0.05 0.05 0.04 0.05 0.06 0.05 0.05 0.04 0.03 0.03 0.02 0.02
0.02 0.02 0.04 0.07 0.04 0.03 0.05 0.06 0.09 0.08 0.08 0.09 0.08 0.07 0.07 0.06 0.06 0.04 0.04 0.04 0.03 0.03 0.03 0.03 0.03 0.03 0.03 0.04 0.05 0.04 0.03 0.04 0.05 0.04 0.04 0.04 0.06 0.06 0.05 0.06 0.05 0.04 0.03 0.02
0.02 0.03 0.06 0.08 0.08 0.08 0.07 0.06 0.07 0.10 0.10 0.09 0.08 0.06 0.04 0.03 0.03 0.03 0.04 0.05 0.04 0.04 0.03 0.03 0.03 0.03 0.03 0.05 0.06 0.04 0.03 0.03 0.04 0.04 0.04 0.05 0.06 0.08 0.08 0.08 0.07 0.05 0.04 0.05
0.03 0.04 0.06 0.07 0.11 0.16 0.12 0.06 0.07 0.10 0.08 0.06 0.06 0.05 0.05 0.04 0.03 0.02 0.03 0.06 0.07 0.06 0.05 0.04 0.03 0.03 0.04 0.08 0.07 0.05 0.04 0.04 0.05 0.05 0.05 0.05 0.06 0.09 0.12 0.11 0.09 0.08 0.08 0.06
0.05 0.06 0.10 0.09 0.11 0.16 0.11 0.07 0.09 0.12 0.09 0.07 0.07 0.07 0.05 0.03 0.02 0.02 0.03 0.06 0.07 0.06 0.05 0.04 0.03 0.02 0.02 0.04 0.05 0.05 0.06 0.06 0.06 0.05 0.05 0.04 0.06 0.12 0.14 0.14 0.12 0.10 0.09 0.08
0.07 0.11 0.11 0.11 0.13 0.13 0.09 0.09 0.11 0.14 0.10 0.07 0.07 0.06 0.05 0.03 0.03 0.03 0.03 0.04 0.04 0.04 0.03 0.03 0.04 0.04 0.03 0.03 0.04 0.03 0.04 0.05 0.07 0.07 0.06 0.06 0.05 0.07 0.10 0.11 0.11 0.10 0.08 0.07
0.16 0.19 0.17 0.14 0.08 0.06 0.07 0.08 0.10 0.09 0.06 0.04 0.04 0.04 0.04 0.04 0.04 0.04 0.04 0.03 0.02 0.02 0.02 0.02 0.04 0.05 0.03 0.03 0.04 0.05 0.05 0.05 0.08 0.09 0.08 0.08 0.07 0.05 0.05 0.07 0.10 0.09 0.07 0.07
0.13 0.11 0.08 0.05 0.04 0.04 0.04 0.04 0.05 0.04 0.04 0.04 0.04 0.04 0.05 0.05 0.04 0.04 0.03 0.02 0.01 0.01 0.01 0.02 0.03 0.04 0.03 0.02 0.04 0.08 0.09 0.07 0.07 0.09 0.09 0.09 0.09 0.07 0.06 0.06 0.08 0.09 0.09 0.08
0.08 0.05 0.04 0.04 0.04 0.04 0.04 0.04 0.04 0.05 0.05 0.06 0.05 0.05 0.06 0.05 0.04 0.02 0.02 0.01 0.01 0.01 0.02 0.03 0.03 0.02 0.02 0.02 0.04 0.06 0.06 0.05 0.05 0.07 0.08 0.09 0.11 0.11 0.08 0.05 0.04 0.05 0.09 0.11
0.06 0.05 0.04 0.05 0.07 0.05 0.05 0.06 0.06 0.06 0.06 0.05 0.04 0.04 0.04 0.04 0.04 0.02 0.01 0.01 0.01 0.02 0.03 0.03 0.02 0.01 0.01 0.01 0.03 0.03 0.03 0.03 0.03 0.03 0.03 0.05 0.09 0.12 0.11 0.07 0.05 0.04 0.07 0.10
0.06 0.06 0.05 0.05 0.07 0.07 0.07 0.09 0.07 0.05 0.04 0.03 0.03 0.03 0.03 0.04 0.04 0.03 0.02 0.01 0.02 0.03 0.04 0.04 0.04 0.02 0.01 0.01 0.03 0.03 0.04 0.04 0.03 0.02 0.02 0.02 0.03 0.06 0.10 0.11 0.09 0.07 0.07 0.07
0.05 0.05 0.05 0.07 0.08 0.08 0.09 0.08 0.07 0.08 0.07 0.05 0.05 0.05 0.05 0.05 0.04 0.03 0.03 0.02 0.03 0.04 0.05 0.06 0.05 0.04 0.03 0.02 0.02 0.03 0.04 0.04 0.02 0.02 0.03 0.02 0.02 0.03 0.04 0.06 0.08 0.07 0.04 0.03
0.04 0.05 0.05 0.07 0.06 0.05 0.05 0.04 0.04 0.06 0.06 0.05 0.05 0.04 0.04 0.04 0.04 0.03 0.03 0.02 0.02 0.03 0.04 0.04 0.04 0.04 0.03 0.03 0.02 0.02 0.03 0.03 0.02 0.03 0.03 0.02 0.01 0.02 0.02 0.03 0.04 0.04 0.02 0.01
MSLP
1012.93 1013.12 1013.39 1013.73 1014.16 1014.62 1015.07 1015.45 1015.71 1015.81 1015.73 1015.49 1015.09 1014.60 1014.04 1013.45 1012.86 1012.27 1011.67 1011.03 1010.33 1009.56 1008.71 1007.78 1006.82 1005.86 1004.95 1004.13 1003.44 1002.91 1002.53 1002.29 1002.17 1002.16 1002.21 1002.33 1002.49 1002.68 1002.92 1003.20 1003.53 1003.89 1004.29 1004.70
1013.52 1013.80 1014.08 1014.39 1014.72 1015.04 1015.33 1015.55 1015.67 1015.68 1015.55 1015.31 1014.96 1014.53 1014.05 1013.54 1013.01 1012.46 1011.89 1011.28 1010.61 1009.87 1009.07 1008.21 1007.32 1006.42 1005.55 1004.74 1004.02 1003.40 1002.88 1002.48 1002.17 1001.96 1001.82 1001.77 1001.80 1001.90 1002.08 1002.33 1002.65 1003.04 1003.46 1003.90
1014.07 1014.40 1014.71 1014.99 1015.24 1015.45 1015.61 1015.70 1015.70 1015.61 1015.44 1015.18 1014.84 1014.45 1014.01 1013.55 1013.05 1012.53 1011.98 1011.38 1010.75 1010.06 1009.33 1008.55 1007.75 1006.95 1006.16 1005.39 1004.68 1004.01 1003.41 1002.88 1002.41 1002.03 1001.72 1001.52 1001.41 1001.40 1001.50 1001.71 1002.00 1002.36 1002.78 1003.21
1014.51 1014.88 1015.20 1015.45 1015.64 1015.75 1015.80 1015.78 1015.68 1015.52 1015.30 1015.01 1014.68 1014.30 1013.88 1013.43 1012.96 1012.45 1011.91 1011.34 1010.73 1010.11 1009.45 1008.78 1008.10 1007.41 1006.72 1006.04 1005.36 1004.71 1004.07 1003.46 1002.90 1002.39 1001.97 1001.63 1001.41 1001.31 1001.33 1001.47 1001.70 1002.01 1002.36 1002.75
1014.76 1015.13 1015.44 1015.65 1015.78 1015.83 1015.79 1015.69 1015.52 1015.30 1015.03 1014.73 1014.39 1014.02 1013.62 1013.18 1012.72 1012.23 1011.71 1011.16 1010.61 1010.04 1009.47 1008.90 1008.34 1007.77 1007.20 1006.62 1006.03 1005.42 1004.80 1004.18 1003.58 1003.03 1002.53 1002.13 1001.84 1001.66 1001.60 1001.66 1001.81 1002.02 1002.29 1002.57
1014.76 1015.09 1015.36 1015.53 1015.62 1015.60 1015.51 1015.35 1015.14 1014.89 1014.60 1014.30 1013.97 1013.62 1013.24 1012.83 1012.39 1011.93 1011.44 1010.93 1010.42 1009.92 1009.43 1008.96 1008.50 1008.05 1007.59 1007.12 1006.62 1006.09 1005.53 1004.96 1004.39 1003.84 1003.35 1002.93 1002.61 1002.39 1002.27 1002.25 1002.30 1002.41 1002.54 1002.68
1014.46 1014.73 1014.94 1015.08 1015.12 1015.08 1014.96 1014.78 1014.56 1014.30 1014.03 1013.75 1013.45 1013.14 1012.80 1012.44 1012.05 1011.62 1011.18 1010.72 1010.26 1009.82 1009.40 1008.99 1008.62 1008.25 1007.88 1007.50 1007.10 1006.66 1006.20 1005.71 1005.21 1004.73 1004.29 1003.91 1003.60 1003.37 1003.22 1003.13 1003.08 1003.06 1003.05 1003.04
1013.89 1014.09 1014.24 1014.33 1014.36 1014.31 1014.20 1014.04 1013.84 1013.62 1013.40 1013.16 1012.92 1012.67 1012.40 1012.10 1011.77 1011.41 1011.01 1010.61 1010.20 1009.80 1009.42 1009.06 1008.73 1008.41 1008.10 1007.79 1007.46 1007.11 1006.73 1006.34 1005.95 1005.57 1005.22 1004.91 1004.65 1004.44 1004.26 1004.12 1003.99 1003.85 1003.70 1003.53
1013.11 1013.24 1013.35 1013.42 1013.45 1013.43 1013.36 1013.25 1013.11 1012.96 1012.80 1012.64 1012.48 1012.31 1012.11 1011.89 1011.63 1011.34 1011.01 1010.65 1010.28 1009.91 1009.54 1009.20 1008.87 1008.57 1008.27 1007.99 1007.70 1007.41 1007.12 1006.82 1006.53 1006.26 1006.01 1005.78 1005.58 1005.41 1005.24 1005.06 1004.86 1004.63 1004.36 1004.06
1012.25 1012.33 1012.42 1012.50 1012.56 1012.59 1012.59 1012.56 1012.50 1012.43 1012.36 1012.28 1012.21 1012.11 1012.00 1011.86 1011.68 1011.45 1011.18 1010.86 1010.52 1010.16 1009.79 1009.43 1009.08 1008.75 1008.43 1008.14 1007.86 1007.59 1007.35 1007.12 1006.91 1006.73 1006.57 1006.42 1006.29 1006.15 1005.99 1005.80 1005.56 1005.26 1004.91 1004.52
1011.43 1011.49 1011.59 1011.71 1011.83 1011.94 1012.02 1012.08 1012.11 1012.13 1012.14 1012.15 1012.14 1012.12 1012.08 1012.01 1011.89 1011.72 1011.49 1011.21 1010.89 1010.53 1010.14 1009.75 1009.35 1008.97 1008.60 1008.27 1007.96 1007.69 1007.46 1007.26 1007.11 1006.98 1006.88 1006.80 1006.71 1006.60 1006.46 1006.26 1006.00 1005.68 1005.29 1004.87
1010.74 1010.82 1010.97 1011.15 1011.36 1011.55 1011.73 1011.87 1011.99 1012.09 1012.16 1012.23 1012.28 1012.31 1012.31 1012.28 1012.21 1012.08 1011.89 1011.63 1011.32 1010.95 1010.55 1010.11 1009.67 1009.23 1008.81 1008.41 1008.06 1007.76 1007.51 1007.32 1007.17 1007.06 1006.99 1006.93 1006.87 1006.77 1006.64 1006.45 1006.20 1005.88 1005.50 1005.09
1010.24 1010.37 1010.59 1010.86 1011.15 1011.43 1011.69 1011.92 1012.11 1012.25 1012.37 1012.46 1012.53 1012.58 1012.60 1012.59 1012.54 1012.43 1012.26 1012.03 1011.72 1011.36 1010.94 1010.48 1010.00 1009.51 1009.04 1008.60 1008.20 1007.86 1007.57 1007.35 1007.19 1007.07 1006.99 1006.92 1006.85 1006.76 1006.63 1006.45 1006.21 1005.92 1005.58 1005.23
1009.91 1010.12 1010.42 1010.78 1011.15 1011.52 1011.85 1012.13 1012.36 1012.54 1012.67 1012.76 1012.82 1012.86 1012.87 1012.85 1012.80 1012.70 1012.54 1012.32 1012.02 1011.66 1011.25 1010.79 1010.29 1009.79 1009.29 1008.81 1008.38 1008.00 1007.68 1007.43 1007.23 1007.08 1006.96 1006.87 1006.77 1006.66 1006.52 1006.35 1006.13 1005.89 1005.61 1005.34
1009.70 1010.00 1010.39 1010.83 1011.28 1011.71 1012.09 1012.41 1012.65 1012.83 1012.95 1013.01 1013.05 1013.05 1013.04 1013.00 1012.92 1012.81 1012.66 1012.44 1012.16 1011.82 1011.42 1010.98 1010.50 1010.00 1009.51 1009.03 1008.59 1008.20 1007.86 1007.57 1007.34 1007.15 1006.99 1006.85 1006.71 1006.57 1006.42 1006.24 1006.05 1005.85 1005.65 1005.45
1009.56 1009.95 1010.41 1010.92 1011.43 1011.90 1012.30 1012.63 1012.87 1013.03 1013.12 1013.16 1013.15 1013.12 1013.06 1012.98 1012.89 1012.76 1012.59 1012.38 1012.12 1011.80 1011.43 1011.02 1010.58 1010.12 1009.66 1009.21 1008.79 1008.40 1008.06 1007.77 1007.51 1007.28 1007.08 1006.90 1006.72 1006.54 1006.37 1006.19 1006.01 1005.84 1005.70 1005.58
1009.44 1009.90 1010.42 1010.97 1011.51 1012.00 1012.41 1012.73 1012.96 1013.10 1013.16 1013.16 1013.11 1013.04 1012.94 1012.83 1012.70 1012.55 1012.37 1012.15 1011.90 1011.60 1011.27 1010.89 1010.50 1010.09 1009.68 1009.28 1008.90 1008.56 1008.24 1007.95 1007.68 1007.44 1007.21 1006.99 1006.78 1006.57 1006.36 1006.17 1006.00 1005.86 1005.75 1005.68
1009.31 1009.82 1010.39 1010.96 1011.50 1011.99 1012.39 1012.69 1012.90 1013.02 1013.05 1013.03 1012.95 1012.84 1012.72 1012.57 1012.41 1012.23 1012.03 1011.80 1011.54 1011.25 1010.93 1010.59 1010.24 1009.89 1009.53 1009.20 1008.88 1008.58 1008.30 1008.04 1007.79 1007.54 1007.30 1007.06 1006.82 1006.59 1006.36 1006.15 1005.97 1005.83 1005.74 1005.69
1009.21 1009.75 1010.32 1010.89 1011.41 1011.87 1012.25 1012.53 1012.72 1012.82 1012.84 1012.80 1012.71 1012.59 1012.43 1012.26 1012.06 1011.85 1011.61 1011.35 1011.07 1010.77 1010.45 1010.13 1009.81 1009.49 1009.19 1008.91 1008.65 1008.41 1008.17 1007.95 1007.73 1007.50 1007.27 1007.02 1006.77 1006.51 1006.27 1006.04 1005.85 1005.69 1005.59 1005.54
1009.18 1009.72 1010.27 1010.80 1011.29 1011.71 1012.04 1012.30 1012.46 1012.55 1012.57 1012.53 1012.43 1012.30 1012.13 1011.93 1011.70 1011.45 1011.16 1010.86 1010.53 1010.20 1009.86 1009.53 1009.21 1008.92 1008.65 1008.41 1008.20 1008.01 1007.83 1007.65 1007.46 1007.25 1007.03 1006.79 1006.53 1006.27 1006.01 1005.77 1005.55 1005.38 1005.25 1005.17
1009.27 1009.78 1010.29 1010.76 1011.19 1011.54 1011.83 1012.05 1012.19 1012.26 1012.28 1012.23 1012.14 1012.00 1011.82 1011.59 1011.33 1011.02 1010.69 1010.32 1009.94 1009.56 1009.18 1008.82 1008.49 1008.20 1007.95 1007.73 1007.56 1007.40 1007.26 1007.11 1006.96 1006.78 1006.57 1006.34 1006.09 1005.82 1005.55 1005.29 1005.06 1004.86 1004.70 1004.59
1009.49 1009.96 1010.40 1010.79 1011.14 1011.42 1011.64 1011.81 1011.91 1011.97 1011.97 1011.92 1011.83 1011.68 1011.48 1011.23 1010.92 1010.57 1010.17 1009.75 1009.31 1008.86 1008.44 1008.04 1007.68 1007.38 1007.13 1006.93 1006.78 1006.65 1006.53 1006.41 1006.28 1006.12 1005.92 1005.70 1005.45 1005.18 1004.90 1004.63 1004.38 1004.16 1003.97 1003.82
1009.83 1010.23 1010.58 1010.89 1011.14 1011.33 1011.48 1011.58 1011.65 1011.66 1011.65 1011.58 1011.47 1011.30 1011.08 1010.79 1010.45 1010.05 1009.60 1009.12 1008.62 1008.13 1007.66 1007.23 1006.86 1006.54 1006.29 1006.10 1005.95 1005.84 1005.74 1005.63 1005.51 1005.36 1005.17 1004.95 1004.70 1004.43 1004.14 1003.86 1003.60 1003.35 1003.14 1002.96
1010.24 1010.56 1010.82 1011.02 1011.16 1011.27 1011.33 1011.36 1011.36 1011.33 1011.27 1011.18 1011.04 1010.84 1010.59 1010.27 1009.89 1009.45 1008.96 1008.44 1007.91 1007.39 1006.90 1006.47 1006.09 1005.77 1005.53 1005.35 1005.21 1005.11 1005.01 1004.91 1004.79 1004.64 1004.44 1004.21 1003.95 1003.66 1003.37 1003.08 1002.80 1002.53 1002.30 1002.10
1010.63 1010.86 1011.02 1011.12 1011.17 1011.17 1011.14 1011.09 1011.03 1010.94 1010.83 1010.69 1010.52 1010.29 1010.00 1009.65 1009.24 1008.78 1008.28 1007.75 1007.22 1006.71 1006.23 1005.81 1005.45 1005.17 1004.95 1004.79 1004.67 1004.57 1004.48 1004.38 1004.24 1004.08 1003.87 1003.61 1003.33 1003.03 1002.71 1002.40 1002.10 1001.82 1001.57 1001.34
1010.93 1011.08 1011.14 1011.15 1011.10 1011.01 1010.90 1010.78 1010.64 1010.49 1010.33 1010.15 1009.93 1009.66 1009.35 1008.99 1008.57 1008.11 1007.62 1007.12 1006.62 1006.15 1005.73 1005.36 1005.06 1004.82 1004.65 1004.53 1004.43 1004.35 1004.26 1004.15 1004.00 1003.81 1003.57 1003.28 1002.97 1002.63 1002.28 1001.94 1001.62 1001.32 1001.05 1000.80
1011.07 1011.14 1011.13 1011.05 1010.92 1010.77 1010.59 1010.40 1010.21 1010.01 1009.80 1009.58 1009.33 1009.04 1008.72 1008.36 1007.95 1007.53 1007.08 1006.64 1006.21 1005.82 1005.48 1005.20 1004.98 1004.82 1004.71 1004.64 1004.58 1004.51 1004.43 1004.31 1004.14 1003.91 1003.63 1003.31 1002.95 1002.57 1002.18 1001.81 1001.45 1001.11 1000.81 1000.53
Thickness
5729 5740 5747 5747 5752 5757 5751 5743 5734 5741 5747 5758 5766 5770 5773 5776 5776 5776 5777 5777 5778 5780 5781 5783 5785 5787 5788 5787 5786 5784 5779 5775 5772 5770 5768 5766 5763 5761 5759 5757 5756 5755 5752 5750
5719 5735 5738 5738 5746 5750 5751 5750 5745 5745 5747 5763 5766 5767 5767 5767 5769 5767 5768 5770 5771 5773 5774 5774 5777 5779 5779 5779 5779 5777 5773 5769 5767 5763 5760 5759 5758 5756 5753 5751 5750 5749 5747 5745
5694 5714 5721 5716 5735 5740 5740 5744 5743 5735 5743 5754 5754 5757 5758 5760 5762 5762 5764 5765 5764 5763 5763 5766 5768 5770 5770 5772 5771 5768 5764 5761 5758 5755 5753 5751 5750 5748 5746 5744 5743 5742 5741 5739
5682 5693 5687 5711 5738 5742 5736 5735 5741 5741 5744 5747 5750 5752 5755 5757 5756 5756 5758 5758 5757 5757 5757 5758 5761 5763 5764 5764 5761 5759 5755 5752 5750 5747 5745 5743 5742 5741 5739 5737 5735 5733 5732 5732
5667 5669 5682 5709 5728 5731 5722 5717 5731 5732 5736 5739 5743 5742 5741 5748 5750 5749 5749 5749 5751 5751 5750 5751 5752 5755 5755 5753 5751 5748 5745 5743 5743 5741 5739 5737 5734 5733 5732 5730 5727 5726 5725 5724
5662 5663 5665 5694 5722 5732 5720 5699 5722 5725 5724 5727 5728 5714 5721 5737 5740 5739 5740 5741 5741 5743 5744 5743 5744 5746 5744 5743 5741 5738 5737 5737 5736 5734 5732 5729 5727 5725 5724 5722 5721 5719 5717 5715
5657 5656 5669 5696 5714 5717 5689 5689 5712 5717 5717 5718 5715 5715 5721 5726 5728 5729 5729 5731 5732 5732 5732 5732 5735 5736 5732 5733 5732 5732 5732 5730 5727 5726 5723 5721 5718 5716 5714 5713 5711 5709 5707 5705
5649 5647 5658 5693 5697 5688 5687 5699 5704 5707 5709 5709 5710 5714 5716 5717 5718 5718 5719 5720 5720 5719 5719 5722 5725 5724 5722 5721 5724 5725 5723 5720 5718 5716 5714 5713 5709 5707 5704 5702 5699 5698 5697 5695
5651 5655 5672 5684 5686 5690 5691 5692 5697 5698 5701 5703 5703 5703 5705 5707 5708 5709 5709 5709 5709 5709 5709 5711 5714 5714 5712 5712 5713 5713 5711 5708 5707 5706 5704 5703 5700 5696 5693 5691 5689 5689 5689 5686
5647 5657 5666 5673 5679 5683 5687 5688 5692 5694 5695 5696 5694 5695 5696 5697 5698 5699 5700 5700 5700 5699 5697 5699 5702 5704 5704 5704 5704 5702 5699 5698 5697 5695 5694 5693 5691 5689 5686 5683 5682 5681 5680 5678
5635 5647 5654 5662 5668 5672 5677 5682 5683 5685 5687 5687 5686 5686 5687 5687 5688 5689 5690 5690 5690 5689 5689 5689 5691 5691 5693 5694 5693 5690 5689 5688 5687 5686 5685 5683 5683 5681 5679 5679 5678 5676 5675 5673
5627 5639 5639 5646 5657 5664 5666 5670 5672 5673 5676 5678 5679 5678 5679 5679 5680 5680 5680 5680 5679 5679 5679 5679 5680 5680 5682 5683 5682 5680 5678 5678 5677 5676 5675 5674 5672 5671 5672 5671 5671 5671 5670 5667
5633 5639 5640 5646 5651 5655 5657 5660 5662 5663 5665 5668 5671 5671 5671 5669 5671 5670 5670 5670 5670 5670 5669 5669 5670 5670 5672 5673 5672 5671 5670 5669 5669 5667 5666 5665 5665 5663 5661 5661 5661 5661 5660 5659
5633 5634 5634 5638 5641 5646 5649 5651 5654 5655 5657 5661 5662 5662 5662 5661 5662 5661 5660 5661 5661 5661 5661 5660 5661 5661 5663 5663 5662 5661 5661 5661 5660 5659 5659 5658 5658 5656 5655 5653 5652 5651 5651 5651
5627 5628 5628 5632 5634 5637 5640 5641 5642 5643 5647 5649 5652 5653 5652 5651 5651 5651 5652 5653 5653 5652 5652 5652 5652 5652 5654 5654 5652 5652 5652 5651 5651 5651 5651 5651 5650 5649 5649 5648 5646 5644 5643 5642
5621 5623 5624 5624 5625 5628 5630 5632 5633 5635 5638 5639 5640 5642 5644 5644 5643 5644 5644 5644 5642 5642 5643 5644 5643 5644 5646 5646 5645 5644 5643 5644 5644 5642 5642 5642 5642 5642 5641 5639 5638 5636 5635 5634
5612 5613 5615 5616 5617 5620 5622 5625 5627 5628 5630 5631 5633 5634 5635 5635 5635 5634 5635 5636 5636 5636 5636 5636 5635 5636 5637 5637 5637 5636 5635 5635 5637 5636 5634 5634 5634 5633 5634 5632 5631 5629 5628 5628
5612 5612 5613 5613 5612 5614 5617 5621 5623 5624 5625 5626 5627 5626 5626 5626 5625 5626 5627 5628 5628 5627 5627 5628 5628 5629 5629 5629 5629 5628 5627 5627 5627 5626 5626 5626 5626 5626 5626 5625 5623 5621 5620 5618
5610 5610 5611 5611 5612 5612 5613 5616 5617 5618 5620 5620 5619 5618 5618 5619 5620 5620 5620 5620 5619 5618 5619 5620 5621 5621 5621 5622 5622 5621 5620 5620 5619 5618 5618 5618 5618 5618 5617 5616 5615 5614 5612 5610
5607 5608 5608 5608 5609 5610 5611 5612 5613 5613 5614 5614 5613 5611 5611 5613 5613 5612 5612 5612 5613 5613 5614 5613 5613 5613 5613 5614 5614 5613 5613 5613 5612 5611 5610 5609 5609 5609 5608 5608 5607 5605 5604 5603
5602 5604 5604 5604 5606 5608 5609 5609 5608 5607 5607 5607 5606 5605 5606 5607 5607 5606 5605 5604 5607 5608 5607 5607 5606 5606 5606 5607 5607 5607 5607 5606 5605 5604 5602 5601 5601 5600 5600 5599 5598 5597 5596 5595
5597 5598 5598 5600 5601 5602 5603 5603 5603 5602 5601 5601 5601 5601 5601 5600 5600 5599 5600 5600 5602 5602 5601 5600 5600 5600 5600 5600 5600 5600 5600 5599 5598 5597 5595 5595 5594 5593 5592 5591 5590 5589 5588 5587
5592 5593 5594 5595 5596 5596 5597 5598 5598 5597 5597 5596 5596 5596 5596 5595 5595 5594 5593 5596 5597 5596 5595 5594 5594 5594 5594 5593 5593 5593 5593 5593 5592 5591 5589 5589 5588 5587 5585 5584 5583 5582 5581 5579
5588 5589 5590 5591 5592 5592 5592 5593 5593 5594 5594 5594 5593 5593 5591 5590 5589 5591 5592 5592 5591 5591 5589 5587 5587 5587 5587 5586 5586 5586 5587 5587 5586 5585 5584 5583 5582 5581 5580 5578 5577 5575 5573 5571
5585 5586 5587 5587 5587 5587 5589 5590 5590 5589 5589 5588 5589 5589 5588 5588 5586 5586 5587 5587 5587 5585 5584 5583 5582 5581 5580 5580 5580 5580 5580 5580 5579 5579 5578 5577 5576 5574 5573 5571 5569 5568 5566 5564
5582 5582 5583 5585 5585 5586 5586 5586 5585 5584 5584 5583 5583 5583 5583 5583 5583 5582 5582 5582 5582 5580 5578 5577 5576 5575 5574 5573 5573 5573 5573 5573 5572 5571 5570 5569 5568 5566 5564 5563 5562 5560 5558 5556
5579 5579 5580 5580 5582 5583 5583 5583 5582 5581 5581 5579 5578 5578 5579 5579 5578 5578 5577 5576 5575 5574 5573 5571 5570 5569 5568 5567 5567 5567 5566 5566 5565 5564 5563 5561 5559 5557 5555 5555 5553 5551 5550 5548